| time (UTC) | temp F | wind direction | speed MPH | gust MPH | rain 1hr in | rain 24hr in | rain mn in | humidity % | barometer mb |
| 20260506233002 | 48 | 304 | 2.0 | 3.0 | 0.00 | 0.00 | 0.00 | 96 | 1005.7 |
| 20260506231502 | 48 | 335 | 3.0 | 6.0 | 0.00 | 0.00 | 0.00 | 96 | 1006.1 |
| 20260506230002 | 48 | 257 | 3.0 | 3.0 | 0.00 | 0.00 | 0.00 | 97 | 1005.7 |
| 20260506224502 | 48 | 238 | 3.0 | 5.0 | 0.00 | 0.00 | 0.00 | 96 | 1006.1 |
| 20260506223001 | 50 | 303 | 1.0 | 3.0 | 0.00 | 0.00 | 0.00 | 97 | 1006.1 |
| 20260506221503 | 50 | 276 | 1.0 | 2.0 | 0.00 | 0.00 | 0.00 | 97 | 1006.1 |
| 20260506220003 | 50 | 252 | 2.0 | 3.0 | 0.00 | 0.00 | 0.00 | 97 | 1005.7 |
| 20260506214503 | 50 | 247 | 0.0 | 1.0 | 0.00 | 0.00 | 0.00 | 96 | 1005.7 |
| 20260506213001 | 50 | 316 | 2.0 | 3.0 | 0.00 | 0.00 | 0.00 | 96 | 1005.0 |
| 20260506211502 | 51 | 285 | 3.0 | 3.0 | 0.00 | 0.00 | 0.00 | 96 | 1005.0 |
| 20260506210002 | 51 | 326 | 6.0 | 7.0 | 0.00 | 0.00 | 0.00 | 96 | 1005.0 |
| 20260506204501 | 51 | 276 | 4.0 | 4.0 | 0.00 | 0.00 | 0.00 | 96 | 1005.0 |
| 20260506203002 | 51 | 266 | 1.0 | 3.0 | 0.00 | 0.00 | 0.00 | 95 | 1005.0 |
| 20260506201502 | 51 | 313 | 2.0 | 3.0 | 0.00 | 0.00 | 0.00 | 95 | 1005.0 |
| 20260506200003 | 53 | 280 | 4.0 | 4.0 | 0.00 | 0.00 | 0.00 | 94 | 1005.0 |
| 20260506194502 | 53 | 244 | 2.0 | 3.0 | 0.00 | 0.00 | 0.00 | 92 | 1005.0 |
| 20260506193003 | 53 | 253 | 4.0 | 5.0 | 0.00 | 0.00 | 0.00 | 91 | 1005.0 |
| 20260506191503 | 53 | 256 | 5.0 | 6.0 | 0.00 | 0.00 | 0.00 | 89 | 1004.7 |
| 20260506190003 | 55 | 251 | 4.0 | 4.0 | 0.00 | 0.00 | 0.00 | 88 | 1004.7 |
| 20260506184502 | 55 | 333 | 2.0 | 5.0 | 0.00 | 0.00 | 0.00 | 87 | 1004.7 |
| 20260506183004 | 55 | 271 | 3.0 | 5.0 | 0.00 | 0.00 | 0.00 | 85 | 1003.7 |
| 20260506181503 | 57 | 284 | 3.0 | 3.0 | 0.00 | 0.00 | 0.00 | 83 | 1003.7 |
| 20260506180005 | 59 | 270 | 2.0 | 3.0 | 0.00 | 0.00 | 0.00 | 81 | 1003.7 |
| 20260506174502 | 60 | 265 | 5.0 | 8.0 | 0.00 | 0.00 | 0.00 | 77 | 1003.7 |
| 20260506173005 | 62 | 245 | 6.0 | 8.0 | 0.00 | 0.00 | 0.00 | 73 | 1003.7 |
| 20260506171502 | 64 | 265 | 8.0 | 8.0 | 0.00 | 0.00 | 0.00 | 72 | 1003.3 |
| 20260506170003 | 66 | 294 | 8.0 | 10.0 | 0.00 | 0.00 | 0.00 | 69 | 1003.0 |
| 20260506164502 | 66 | 229 | 8.0 | 9.0 | 0.00 | 0.00 | 0.00 | 66 | 1003.0 |
| 20260506163003 | 68 | 253 | 9.0 | 13.0 | 0.00 | 0.00 | 0.00 | 63 | 1003.0 |
| 20260506161503 | 68 | 240 | 3.0 | 5.0 | 0.00 | 0.00 | 0.00 | 64 | 1003.0 |
| 20260506160004 | 68 | 270 | 6.0 | 8.0 | 0.00 | 0.00 | 0.00 | 64 | 1003.0 |
| 20260506154502 | 69 | 241 | 3.0 | 4.0 | 0.00 | 0.00 | 0.00 | 63 | 1003.0 |
| 20260506153002 | 68 | 257 | 6.0 | 7.0 | 0.00 | 0.00 | 0.00 | 62 | 1003.0 |
| 20260506151502 | 66 | 258 | 5.0 | 8.0 | 0.00 | 0.00 | 0.00 | 64 | 1003.0 |
| 20260506150003 | 66 | 295 | 3.0 | 4.0 | 0.00 | 0.00 | 0.00 | 65 | 1003.0 |
| 20260506144501 | 68 | 248 | 7.0 | 10.0 | 0.00 | 0.00 | 0.00 | 62 | 1003.0 |
| 20260506143002 | 66 | 219 | 6.0 | 8.0 | 0.00 | 0.00 | 0.00 | 64 | 1003.0 |
| 20260506141503 | 68 | 255 | 6.0 | 7.0 | 0.00 | 0.00 | 0.00 | 62 | 1003.0 |
| 20260506140002 | 66 | 207 | 9.0 | 10.0 | 0.00 | 0.00 | 0.00 | 62 | 1003.0 |
| 20260506134501 | 66 | 249 | 8.0 | 8.0 | 0.00 | 0.00 | 0.00 | 63 | 1003.0 |
| 20260506133002 | 68 | 228 | 3.0 | 4.0 | 0.00 | 0.00 | 0.00 | 65 | 1003.0 |
| 20260506131503 | 66 | 239 | 8.0 | 10.0 | 0.00 | 0.00 | 0.00 | 64 | 1003.0 |
| 20260506130002 | 66 | 189 | 8.0 | 9.0 | 0.00 | 0.00 | 0.00 | 65 | 1003.0 |
| 20260506124502 | 66 | 228 | 4.0 | 4.0 | 0.00 | 0.00 | 0.00 | 66 | 1003.0 |
| 20260506123002 | 64 | 202 | 5.0 | 8.0 | 0.00 | 0.00 | 0.00 | 65 | 1003.0 |
| 20260506121501 | 66 | 229 | 4.0 | 6.0 | 0.00 | 0.00 | 0.00 | 65 | 1003.0 |
| 20260506120001 | 64 | 233 | 5.0 | 7.0 | 0.00 | 0.00 | 0.00 | 67 | 1003.0 |
| 20260506114502 | 64 | 218 | 6.0 | 8.0 | 0.00 | 0.00 | 0.00 | 65 | 1003.0 |
| 20260506113003 | 66 | 247 | 6.0 | 8.0 | 0.00 | 0.00 | 0.00 | 63 | 1003.0 |
| 20260506111503 | 62 | 216 | 8.0 | 9.0 | 0.00 | 0.00 | 0.00 | 68 | 1003.3 |
| 20260506110001 | 64 | 228 | 6.0 | 7.0 | 0.00 | 0.00 | 0.00 | 67 | 1003.0 |
| 20260506104502 | 64 | 208 | 11.0 | 12.0 | 0.00 | 0.00 | 0.00 | 66 | 1003.0 |
| 20260506103002 | 66 | 233 | 4.0 | 7.0 | 0.00 | 0.00 | 0.00 | 65 | 1003.0 |
| 20260506101503 | 66 | 249 | 8.0 | 13.0 | 0.00 | 0.00 | 0.00 | 64 | 1003.0 |
| 20260506100004 | 64 | 232 | 5.0 | 6.0 | 0.00 | 0.00 | 0.00 | 67 | 1003.0 |
| 20260506094503 | 66 | 232 | 8.0 | 9.0 | 0.00 | 0.00 | 0.00 | 62 | 1003.0 |
| 20260506093002 | 62 | 255 | 7.0 | 9.0 | 0.00 | 0.00 | 0.00 | 68 | 1003.0 |
| 20260506091503 | 64 | 235 | 4.0 | 4.0 | 0.00 | 0.00 | 0.00 | 66 | 1002.7 |
| 20260506090004 | 64 | 198 | 5.0 | 6.0 | 0.00 | 0.00 | 0.00 | 66 | 1002.7 |
| 20260506084503 | 62 | 225 | 6.0 | 13.0 | 0.00 | 0.00 | 0.00 | 68 | 1003.0 |
| 20260506083003 | 60 | 193 | 3.0 | 3.0 | 0.00 | 0.00 | 0.00 | 75 | 1002.3 |
| 20260506081503 | 59 | 180 | 2.0 | 3.0 | 0.00 | 0.00 | 0.00 | 75 | 1002.0 |
| 20260506073002 | 57 | 161 | 2.0 | 2.0 | 0.00 | 0.00 | 0.00 | 74 | 1002.3 |
| 20260506071502 | 59 | 235 | 0.0 | 2.0 | 0.00 | 0.00 | 0.00 | 72 | 1002.3 |
| 20260506061503 | 55 | 231 | 3.0 | 4.0 | 0.00 | 0.00 | 0.00 | 81 | 1002.3 |
| 20260506044501 | 50 | 349 | 5.0 | 7.0 | 0.00 | 0.00 | 0.00 | 97 | 1003.0 |
| 20260506043004 | 50 | 16 | 5.0 | 9.0 | 0.00 | 0.00 | 0.00 | 98 | 1003.0 |
| 20260506041503 | 50 | 86 | 6.0 | 8.0 | 0.00 | 0.00 | 0.00 | 98 | 1003.0 |
| 20260506040005 | 50 | 28 | 6.0 | 8.0 | 0.00 | 0.00 | 0.00 | 99 | 1003.0 |
| 20260506034503 | 50 | 8 | 5.0 | 5.0 | 0.00 | 0.00 | 0.00 | 99 | 1003.3 |
| 20260506033004 | 48 | 17 | 3.0 | 4.0 | 0.00 | 0.00 | 0.00 | 99 | 1003.3 |
| 20260506031502 | 48 | 28 | 5.0 | 5.0 | 0.00 | 0.00 | 0.00 | 99 | 1003.3 |
| 20260506030002 | 48 | 41 | 5.0 | 6.0 | 0.00 | 0.00 | 0.00 | 99 | 1003.3 |
| 20260506024502 | 48 | 353 | 3.0 | 4.0 | 0.00 | 0.00 | 0.00 | 99 | 1003.7 |
| 20260506023003 | 48 | 55 | 6.0 | 8.0 | 0.00 | 0.00 | 0.00 | 99 | 1004.0 |
| 20260506021503 | 48 | 26 | 6.0 | 7.0 | 0.00 | 0.00 | 0.00 | 99 | 1004.0 |
| 20260506020003 | 50 | 32 | 6.0 | 8.0 | 0.00 | 0.00 | 0.00 | 99 | 1004.0 |
| 20260506014501 | 50 | 9 | 5.0 | 6.0 | 0.00 | 0.00 | 0.00 | 99 | 1004.0 |
| 20260506013002 | 50 | 321 | 6.0 | 9.0 | 0.00 | 0.00 | 0.00 | 99 | 1004.0 |
| 20260506011502 | 50 | 85 | 5.0 | 5.0 | 0.00 | 0.00 | 0.00 | 99 | 1004.7 |
| 20260506010002 | 50 | 352 | 6.0 | 8.0 | 0.00 | 0.00 | 0.00 | 99 | 1005.0 |
| 20260506004503 | 50 | 15 | 4.0 | 6.0 | 0.00 | 0.00 | 0.00 | 99 | 1005.0 |
| 20260506003004 | 50 | 29 | 6.0 | 7.0 | 0.00 | 0.00 | 0.00 | 99 | 1005.0 |
| 20260506001503 | 50 | 19 | 6.0 | 10.0 | 0.00 | 0.00 | 0.00 | 99 | 1005.0 |
| 20260506000003 | 50 | 55 | 5.0 | 8.0 | 0.00 | 0.00 | 0.00 | 99 | 1005.0 |
| 20260505234502 | 50 | 352 | 8.0 | 9.0 | 0.00 | 0.00 | 0.00 | 99 | 1005.4 |